Home > Weather > Odessa > Past weeks

Flag for USA Past Weather in Odessa, Texas, USA — Yesterday and Last 2 Weeks

Now
77 °F

Sunny.


Feels Like: 79 °F
Forecast: 72 / 92 °F
Wind: 21 mph from South

Location: Odessa-Schlemeyer Field

Current Time: Jun 25, 2016 at 9:21:43 AM

Latest Report: Jun 25, 2016 at 8:53 AM


Visibility: 10 mi

Pressure: 29.90 "Hg (27.02 "Hg at 882m altitude)

Humidity: 66%

Dew Point: 65 °F

Location of OdessaLocation

Past Weather in Odessa — Graph

°F

Odessa Temperature Yesterday

Maximum temperature yesterday: 94 °F (at 4:53 PM)
Minimum temperature yesterday: 69 °F (at 6:53 AM)
Average temperature yesterday: 84 °F

High & Low Weather Summary for the Past Weeks

 TemperatureHumidityPressure
High103 °F (Jun 17, 6:53 PM)100% (Jun 12, 1:53 AM)30.14 "Hg (Jun 12, 1:53 AM)
Low66 °F (Jun 12, 1:53 AM)9% (Jun 17, 6:53 PM)29.66 "Hg (Jun 14, 7:53 PM)
Average84 °F49%29.88 "Hg
* Reported Jun 10 7:53 AM — Jun 25 7:53 AM, Odessa, Weather by CustomWeather, © 2016

Note: Actual official high and low records may vary slightly from our data, if they occured in-between our weather recording intervals... More about our weather records

Advertising

Odessa Weather History for the Previous 24 Hours

Scroll right to see more
 ConditionsComfort  
Time TempWeatherWind HumidityBarometerVisibility
7:53 AM
Sat, Jun 25
74 °FSunny.13 mph74%29.90 "Hg10 mi
6:53 AM72 °FClear.9 mph73%29.88 "Hg10 mi
5:53 AM73 °FClear.10 mph69%29.86 "Hg10 mi
4:53 AM74 °FClear.10 mph64%29.85 "Hg10 mi
3:53 AM74 °FClear.9 mph62%29.86 "Hg10 mi
2:53 AM76 °FClear.12 mph58%29.86 "Hg10 mi
1:53 AM78 °FClear.10 mph52%29.87 "Hg10 mi
12:53 AM80 °FClear.13 mph49%29.88 "Hg10 mi
11:53 PM
Fri, Jun 24
81 °FClear.15 mph42%29.89 "Hg10 mi
10:53 PM84 °FClear.13 mph33%29.87 "Hg10 mi
9:53 PM86 °FSunny.12 mph29%29.84 "Hg10 mi
8:53 PM88 °FSunny.15 mph29%29.82 "Hg10 mi
7:53 PM90 °FSunny.16 mph29%29.82 "Hg10 mi
6:53 PM93 °FSunny.17 mph27%29.82 "Hg10 mi
5:53 PM94 °FSunny.14 mph25%29.82 "Hg10 mi
4:53 PM94 °FSunny.17 mph25%29.83 "Hg10 mi
3:53 PM93 °FSunny.17 mph26%29.86 "Hg10 mi
2:53 PM93 °FSunny.15 mph26%29.88 "Hg10 mi
1:53 PM92 °FSunny.18 mph28%29.90 "Hg10 mi
12:53 PM90 °FSunny.16 mph32%29.92 "Hg10 mi
11:53 AM88 °FSunny.13 mph38%29.94 "Hg10 mi
10:53 AM83 °FSunny.16 mph51%29.95 "Hg10 mi
9:53 AM80 °FSunny.15 mph56%29.96 "Hg10 mi
Weather by CustomWeather, © 2016

See weather overviewHow to use our weather pages